Location: Grand Rapids
(42.9630°N, 85.6680°W)
Time: 02:06:08
(UTC-04:00)

Explorer 7 - Visible Passes

Search period start: 30 May 2024 00:00
Search period end: 09 June 2024 00:00
Orbit: 467 x 625 km, 50.3° (Epoch: 29 May)

Date Brightness Start Highest point End Pass type
(mag) Time Alt. Az. Time Alt. Az. Time Alt. Az.
30 May 8.3 01:29:44 10° NW 01:33:15 33° NNE 01:36:55 10° E visible
30 May 7.0 03:09:17 10° WNW 03:12:21 53° WNW 03:12:21 53° WNW visible
30 May 7.5 22:02:11 10° W 22:05:46 51° NNW 22:09:26 10° NE visible
30 May 8.7 23:42:48 10° WNW 23:46:01 26° N 23:49:20 10° ENE visible
31 May 8.1 01:22:48 10° NW 01:26:23 37° NNE 01:28:07 25° ENE visible
31 May 8.6 03:02:22 10° WNW 03:03:35 19° WNW 03:03:35 19° WNW visible
31 May 7.9 21:55:21 10° W 21:58:51 42° NNW 22:02:27 10° NE visible
31 May 8.7 23:35:59 10° WNW 23:39:11 26° N 23:42:28 10° ENE visible
01 Jun 7.7 01:15:50 10° NW 01:19:29 43° NNE 01:20:15 38° NE visible
01 Jun 9.2 02:55:29 10° WNW 02:55:45 12° WNW 02:55:45 12° WNW visible
01 Jun 8.2 21:48:32 10° W 21:51:57 36° NNW 21:55:27 10° NE visible
01 Jun 8.7 23:29:07 10° NW 23:32:19 26° N 23:35:37 10° ENE visible
02 Jun 7.3 01:08:50 10° NW 01:12:33 51° NNE 01:12:42 51° NNE visible
02 Jun 8.6 23:22:12 10° NW 23:25:25 27° N 23:28:45 10° ENE visible
03 Jun 7.1 01:01:50 10° NW 01:05:18 60° N 01:05:18 60° N visible
03 Jun 8.4 23:15:15 10° NW 23:18:32 29° N 23:21:54 10° ENE visible
04 Jun 7.0 00:54:48 10° WNW 00:58:00 60° NW 00:58:00 60° NW visible
04 Jun 8.2 23:08:15 10° NW 23:11:36 31° NNE 23:15:02 10° ENE visible
05 Jun 7.1 00:47:46 10° WNW 00:50:44 53° WNW 00:50:44 53° WNW visible
05 Jun 8.0 23:01:12 10° NW 23:04:38 34° NNE 23:08:00 11° E visible
06 Jun 7.3 00:40:45 10° WNW 00:43:31 45° W 00:43:31 45° W visible
06 Jun 7.7 22:54:08 10° NW 22:57:38 39° NNE 23:00:49 13° E visible
07 Jun 7.6 00:33:44 10° WNW 00:36:20 37° W 00:36:20 37° W visible
07 Jun 7.4 22:47:02 10° NW 22:50:36 46° NNE 22:53:39 14° E visible
08 Jun 7.9 00:26:45 10° WNW 00:29:10 30° WSW 00:29:10 30° WSW visible
08 Jun 7.0 22:39:54 10° NW 22:43:33 56° NNE 22:46:32 15° ESE visible
